sat.trackr.live / text

‹ back to catalog

VELOX-CI

NORAD 41166 · 2015-077A

PAYLOAD ACTIVE UNKNOWN

§ Identity

Operator
Country
SING
Launch date
2015-12-16
Launch site
SRILR
Launch vehicle
Mass (kg)
RCS (m²)
0.55

External: N2YO · Heavens-Above · Gunter

§ Orbital elements

Epoch: 2026-09-16T04:38:15.153216Z

Period
92.70 min
Inclination
14.9816°
Eccentricity
0.0004027
Mean motion
15.53328735 rev/d
Perigee alt
404.3 km
Apogee alt
409.7 km
Semi-major
6,785.2 km
B*
3.9674e-4
RAAN
97.7342°
Arg perigee
123.5908°
Mean anomaly
236.4803°
Rev number
59,688

§ Raw data

VELOX-CI1 41166U 15077A   26259.19323094  .00027257  00000+0  39674-3 0  99972 41166  14.9816  97.7342 0004027 123.5908 236.4803 15.53328735596886

JSON: /api/v1/satellites/41166 · /tle

For live sub-satellite position, see the globe view (requires WebGL).

§ Visibility from observer

Set your observer location to see the next 7 days of passes ≥ 10°. The values pass through the URL so the page stays shareable.

No JS? Fill the form by hand. The geolocation button needs JavaScript.